Flag for China Weather past 2 weeks in Nanning, Guangxi, China

Now
86 °F

Partly sunny.


Feels Like: 97 °F
Forecast: 76 / 90 °F
Wind: 6 mph from East

Location: Nanning Airport

Current Time: Sep 18, 2014 at 1:57:16 PM

Latest Report: Sep 18, 2014 at 1:00 PM


Visibility: N/A

Pressure: 29.86 "Hg

Humidity: 75%

Dew point: 77 °F

Location of NanningLocation

Historic Weather in Nanning — Graph

°F

Nanning temperature yesterday

Maximum temperature yesterday: 86 °F (at 2:00 PM)
Minimum temperature yesterday: 75 °F (at 12:00 AM)
Average temperature yesterday: 80 °F

Past Weeks' High & Low Weather Summary

 TemperatureHumidityPressure
High95 °F (Sep 15, 3:00 PM)100% (Sep 10, 1:00 AM)29.89 "Hg (Sep 10, 1:00 AM)
Low75 °F (Sep 16, 9:00 PM)47% (Sep 6, 4:00 PM)29.18 "Hg (Sep 16, 7:00 PM)
Average83 °F80%29.70 "Hg
* Reported Sep 3 1:00 PM — Sep 18 1:00 PM, Nanning, Weather by CustomWeather, © 2014

Note: Actual official high and low records may vary slightly from our data, if they occured in-between our weather recording intervals... More about our weather records

Advertising

Nanning weather history for previous 24 hours

 ConditionsComfort  
Time TempWeatherWind HumidityBarometerVisibility
1:00 PM
Sep 18
86 °FPartly sunny.6 mph75%29.86 "HgN/A
12:00 PM84 °FScattered clouds.3 mph84%29.89 "HgN/A
11:00 AM84 °FScattered clouds.3 mph84%29.89 "HgN/A
10:00 AM82 °FScattered clouds.6 mph89%29.89 "HgN/A
9:00 AM81 °FBroken clouds.6 mph94%29.89 "HgN/A
8:00 AM79 °FScattered clouds.3 mph94%29.89 "HgN/A
7:00 AM79 °FScattered clouds.6 mph94%29.86 "HgN/A
6:00 AM79 °FPartly cloudy.1 mph94%29.86 "HgN/A
5:00 AM79 °FPartly cloudy.6 mph94%29.83 "HgN/A
4:00 AM79 °FLight rain. Partly cloudy.3 mph94%29.83 "Hg4 mi
3:00 AM79 °FPassing clouds.3 mph100%29.83 "HgN/A
2:00 AM79 °FPassing clouds.6 mph94%29.83 "HgN/A
1:00 AM79 °FPassing clouds.3 mph94%29.83 "HgN/A
12:00 AM81 °FPassing clouds.3 mph89%29.86 "HgN/A
11:00 PM
Sep 17
81 °FPassing clouds.3 mph94%29.83 "HgN/A
10:00 PM81 °FPassing clouds.3 mph89%29.83 "HgN/A
9:00 PM81 °FPassing clouds.8 mph89%29.80 "HgN/A
8:00 PM81 °FPassing clouds.6 mph94%29.77 "HgN/A
7:00 PM82 °FPassing clouds.8 mph89%29.71 "HgN/A
6:00 PM84 °FScattered clouds.6 mph84%29.71 "HgN/A
5:00 PM86 °FScattered clouds.13 mph75%29.68 "HgN/A
4:00 PM86 °FScattered clouds.8 mph79%29.65 "HgN/A
3:00 PM86 °FBroken clouds.15 mph75%29.65 "HgN/A
2:00 PM86 °FScattered clouds.15 mph79%29.65 "HgN/A
1:00 PM82 °FSprinkles. Scattered clouds.8 mph89%29.65 "HgN/A
Weather by CustomWeather, © 2014

See weather overviewHow to use our weather pages